Location: Tamazert
(32.6352°N, 5.2072°W)
Time: 15:26:13
(UTC+00:00)

Vanguard 3 - Visible Passes

Search period start: 26 September 2022 00:00
Search period end: 06 October 2022 00:00
Orbit: 508 x 3258 km, 33.3° (Epoch: 25 September)

Date Brightness Start Highest point End Pass type
(mag) Time Alt. Az. Time Alt. Az. Time Alt. Az.
26 Sep 11.5 18:08:17 10° W 18:21:35 30° SW 18:37:06 10° SSE visible
27 Sep 11.7 19:11:14 10° WSW 19:19:50 15° SW 19:28:59 10° SSW visible
29 Sep 11.9 18:56:11 10° WSW 19:01:18 12° SW 19:06:40 10° SSW visible
